Location: Unspecified
(0.0000°N, 0.0000°E)
Time: 01:40:13
(UTC+00:00)

deb Explorer IX - Visible Passes

Search period start: 20 February 2017 00:00
Search period end: 02 March 2017 00:00
Orbit: 542 x 1126 km, 38.8° (Epoch: 19 February)

Date Brightness Start Highest point End Pass type
(mag) Time Alt. Az. Time Alt. Az. Time Alt. Az.
20 Feb ? 04:25:24 10° NNE 04:26:35 10° NE 04:27:46 10° NE visible
20 Feb ? 18:54:41 10° WSW 18:58:43 59° NW 19:02:41 10° NE visible
21 Feb ? 04:05:26 10° NNE 04:07:17 11° NE 04:09:09 10° NE visible
21 Feb ? 18:35:33 10° WSW 18:39:35 52° NW 18:43:32 10° NE visible
22 Feb ? 03:45:48 10° NNE 03:47:58 12° NE 03:50:17 10° ENE visible
22 Feb ? 05:28:47 10° NW 05:35:46 60° NE 05:43:07 10° ESE visible
23 Feb ? 03:28:09 12° NE 03:28:39 12° NE 03:31:18 10° ENE visible
23 Feb ? 05:09:45 11° NW 05:16:22 63° NE 05:23:45 10° ESE visible
24 Feb ? 03:10:33 12° NE 03:10:33 12° NE 03:12:15 10° ENE visible
24 Feb ? 04:52:09 21° NW 04:56:57 67° NE 05:04:21 10° ESE visible
25 Feb ? 02:52:57 10° ENE 02:52:57 10° ENE 02:53:08 10° ENE visible
25 Feb ? 04:34:33 36° NNW 04:37:33 72° NE 04:44:56 10° SE visible
26 Feb ? 04:16:57 62° NNW 04:18:08 76° NE 04:25:30 10° SE visible
27 Feb ? 03:59:20 74° E 03:59:20 74° E 04:06:03 10° SE visible
27 Feb ? 05:41:21 10° W 05:46:38 22° SW 05:52:11 10° S visible
28 Feb ? 03:41:39 46° SE 03:41:39 46° SE 03:46:34 10° SE visible
28 Feb ? 05:23:14 13° WSW 05:27:16 21° SW 05:32:31 10° S visible
01 Mar ? 03:23:54 28° SE 03:23:54 28° SE 03:27:05 10° SE visible
01 Mar ? 05:05:30 16° WSW 05:07:54 19° SW 05:12:50 10° S visible
